This demonstration page uses our WeatherBlox Daily Observations layout. Learn more.

Left ArrowRight Arrow

39.08367, -84.50855

Hourly Observations for September 11, 2015

Temp ( °F °C ) Dew Point ( °F °C ) Humidity (%) Winds ( mph kmh ) Pressure ( in mb ) Visibility ( mi km ) Precip ( " mm )
12:32 am 00:32 Mostly Cloudy with Mist and Fog 61 16 61 16 100 100 Calm 29.88 1012 1 1 0.00 0.00
12:41 am 00:41 Mostly Cloudy with Fog 61 16.1 61 16.1 100 100 Calm 29.88 1012 0 0 0.00 0.00
12:47 am 00:47 Mostly Cloudy with Mist and Fog 61 16 61 16 100 100 Calm 29.88 1012 1 2 0.00 0.00
12:49 am 00:49 Mostly Clear with Mist and Fog 61 16 61 16 100 100 Calm 29.88 1012 3 4 0.00 0.00
12:53 am 00:53 Mostly Clear 60 15.6 60 15.6 100 100 Calm 29.87 1012 7 11 0.00 0.00
1:28 am 01:28 Clear with Mist and Fog 61 16 61 16 100 100 E 3 6 29.88 1012 2 3 0.00 0.00
1:36 am 01:36 Clear with Mist and Fog 61 16 61 16 100 100 E 3 6 29.88 1012 3 5 0.00 0.00
1:53 am 01:53 Clear 61 16.1 61 16.1 100 100 N 3 6 29.88 1012 7 11 0.00 0.00
2:53 am 02:53 Clear with Mist and Fog 60 15.6 60 15.6 100 100 Calm 29.88 1012 4 6 0.00 0.00
3:36 am 03:36 Clear with Mist and Fog 61 16 61 16 100 100 Calm 29.88 1012 2 3 0.00 0.00
3:53 am 03:53 Clear with Mist and Fog 59 15 59 15 100 100 Calm 29.88 1012 2 2 0.00 0.00
4:09 am 04:09 Clear with Mist and Fog 59 15 59 15 100 100 NE 3 6 29.88 1012 3 5 0.00 0.00
4:53 am 04:53 Clear with Mist and Fog 59 15 59 15 100 100 Calm 29.87 1012 6 10 0.00 0.00
5:53 am 05:53 Clear with Mist and Fog 58 14.4 58 14.4 100 100 NE 3 6 29.88 1012 6 10 0.00 0.00
6:26 am 06:26 Clear with Mist and Fog 57 14 57 14 100 100 Calm 29.91 1013 2 2 0.00 0.00
6:36 am 06:36 Clear with Mist and Fog 57 14 57 14 100 100 Calm 29.91 1013 4 6 0.00 0.00
6:53 am 06:53 Clear with Patchy Fog 58 14.4 58 14.4 100 100 Calm 29.89 1012 10 16 0.00 0.00
7:53 am 07:53 Sunny 58 14.4 57 13.9 97 97 NE 3 6 29.91 1013 10 16 0.00 0.00
8:53 am 08:53 Sunny 63 17.2 61 16.1 93 93 Calm 29.92 1013 10 16 0.00 0.00
9:53 am 09:53 Sunny 68 20 62 16.7 81 81 Calm 29.92 1013 10 16 0.00 0.00
10:53 am 10:53 Sunny 73 22.8 57 13.9 57 57 Calm 29.91 1013 10 16 0.00 0.00
11:53 am 11:53 Sunny 77 25 60 15.6 56 56 Calm 29.89 1012 10 16 0.00 0.00
12:53 pm 12:53 Sunny 80 26.7 59 15 49 49 S 5 7 29.87 1012 10 16 0.00 0.00
1:53 pm 13:53 Mostly Cloudy 78 25.6 60 15.6 54 54 S 3 6 29.85 1011 10 16 0.00 0.00
2:53 pm 14:53 Cloudy with Light Rain 73 22.8 62 16.7 69 69 NNW 15 24 29.85 1011 10 16 0.00 0.03
3:53 pm 15:53 Mostly Cloudy 71 21.7 61 16.1 71 71 N 16 26 29.85 1011 10 16 0.00 0.03
4:53 pm 16:53 Cloudy with Light Rain 67 19.4 62 16.7 84 84 NNE 7 11 29.86 1011 10 16 0.01 0.25
5:53 pm 17:53 Cloudy with Light Rain 66 18.9 61 16.1 84 84 NNE 5 7 29.86 1011 10 16 0.01 0.25
6:53 pm 18:53 Cloudy 65 18.3 61 16.1 87 87 N 5 7 29.87 1011 10 16 0.00 0.03
7:29 pm 19:29 Mostly Cloudy 65 18.3 62 16.7 90 90 NNW 7 11 29.88 1012 10 16 0.00 0.00
7:38 pm 19:38 Mostly Cloudy 64 18 63 17 94 94 NNW 7 11 29.88 1012 10 16 0.00 0.00
7:53 pm 19:53 Cloudy 64 17.8 62 16.7 93 93 N 8 13 29.87 1011 10 16 0.00 0.00
8:40 pm 20:40 Cloudy 64 18 61 16 88 88 N 8 13 29.88 1012 10 16 0.00 0.00
8:49 pm 20:49 Cloudy 64 18 61 16 88 88 NNE 8 13 29.88 1012 10 16 0.00 0.00
8:53 pm 20:53 Cloudy 64 17.8 61 16.1 90 90 NNE 6 9 29.86 1011 10 16 0.00 0.00
9:26 pm 21:26 Cloudy with Light Rain 64 18 61 16 88 88 N 3 6 29.88 1012 9 14 0.00 0.00
9:53 pm 21:53 Cloudy with Heavy Rain 63 17.2 62 16.7 97 97 N 8 13 29.87 1012 4 6 0.07 1.78
10:53 pm 22:53 Cloudy with Rain 62 16.7 61 16.1 96 96 NW 12 19 29.90 1012 4 6 0.11 2.79
10:58 pm 22:58 Cloudy with Heavy Rain 61 16 61 16 100 100 NNW 10 17 29.91 1013 3 4 0.00 0.00
11:09 pm 23:09 Cloudy with Heavy Rain 61 16.1 60 15.6 97 97 NNW 9 15 29.91 1013 3 5 0.11 2.79
11:49 pm 23:49 Cloudy with Light Rain 61 16 61 16 100 100 NNW 6 9 29.91 1013 10 16 0.14 3.56
11:53 pm 23:53 Cloudy with Light Rain 61 16.1 60 15.6 97 97 N 7 11 29.89 1012 10 16 0.14 3.56

Powered by AerisWeather